User: anonymous   Login
Location: D�derode
(51.8092°N, 10.1065°E)
Time: 02:30:15
(UTC+00:00)
Language:

Cosmos 1939 Rocket - Orbit

View from above orbital plane
View from above orbital plane
View from above satellite
View from above satellite

Ground track
Ground track

The orbit data is extracted from the following two-line orbital elements,

1 19046U 88032B   21059.54794556 -.00000393  00000-0 -24508-4 0  9993
2 19046  97.3923  75.0724 0039176  55.5051 304.9865 15.02864335775424
Epoch (UTC): 28 February 2021 13:09:02
Eccentricity: 0.0039176
inclination: 97.3923°
perigee height: 531 km
apogee height: 585 km
right ascension of ascending node: 75.0724°
argument of perigee: 55.5051°
revolutions per day: 15.02864335
mean anomaly at epoch: 304.9865°
orbit number at epoch: 77542

The dashed part of the orbit path shows where the satellite is in the earth's shadow,  

DLR